Temperature
18 21 20 18 17 18 18 18 18 17 13 12 13 14 13 8 7 8 7 6 5 4 3 1 1 1 1 1 0 -0 -1 -1 -2 -2 -2 -2 -3 -4 -5 -5 -6 -6 -7 -8
21 19 17 16 15 16 17 18 18 15 12 12 14 13 13 10 8 8 8 7 6 5 2 1 1 1 1 0 0 -1 -1 -2 -2 -3 -3 -3 -4 -5 -6 -6 -7 -7 -8 -8
20 17 15 16 16 17 17 18 17 16 13 11 12 16 12 10 8 7 7 7 6 5 3 1 1 1 0 0 -0 -1 -2 -2 -3 -3 -3 -4 -5 -6 -6 -7 -7 -8 -8 -9
17 16 15 16 16 16 18 15 14 14 15 17 13 17 16 11 9 8 7 6 6 5 3 2 1 1 1 0 -1 -1 -2 -3 -3 -3 -4 -5 -5 -6 -7 -8 -8 -9 -9 -10
17 15 16 16 15 15 15 13 13 13 14 15 14 16 18 11 12 11 9 7 6 5 3 1 1 1 1 0 -1 -2 -2 -3 -3 -4 -4 -5 -6 -6 -7 -8 -9 -9 -10 -10
15 14 14 15 14 13 13 14 13 13 15 17 16 16 18 15 15 13 11 8 6 4 2 1 1 1 0 -0 -1 -2 -2 -3 -3 -4 -5 -5 -6 -7 -8 -8 -9 -10 -10 -10
16 15 14 13 15 14 15 17 18 18 18 18 13 14 17 15 12 11 10 8 5 3 2 1 1 1 0 -1 -1 -2 -3 -3 -4 -4 -5 -6 -6 -7 -8 -9 -10 -10 -10 -10
18 18 15 14 15 15 15 16 17 17 18 18 14 15 18 12 8 7 6 5 4 2 1 1 1 1 -0 -1 -2 -2 -3 -3 -4 -5 -5 -6 -7 -7 -8 -9 -10 -10 -11 -11
18 17 14 13 13 14 15 15 14 16 15 15 17 17 17 9 9 7 6 4 3 2 1 1 1 0 -0 -1 -2 -2 -3 -4 -4 -5 -5 -6 -7 -8 -8 -9 -9 -10 -10 -11
15 16 14 13 13 12 14 14 15 15 16 16 18 17 18 16 14 11 7 5 3 2 1 0 0 0 -0 -1 -2 -2 -3 -4 -4 -5 -6 -6 -7 -8 -8 -9 -10 -10 -10 -11
13 15 15 14 14 15 13 13 14 15 15 16 16 18 17 16 14 12 10 6 4 2 1 1 0 -0 -1 -1 -2 -3 -3 -4 -5 -5 -6 -6 -7 -8 -8 -9 -10 -10 -10 -11
12 14 16 16 12 12 14 14 14 16 15 14 15 17 15 13 11 10 9 6 4 2 1 1 0 -0 -1 -1 -2 -3 -3 -4 -5 -5 -6 -6 -7 -8 -8 -9 -10 -10 -10 -11
11 14 17 17 14 12 12 12 12 13 14 14 14 17 13 10 9 8 7 5 3 2 1 0 0 -0 -1 -2 -2 -3 -4 -4 -5 -5 -6 -6 -7 -8 -8 -9 -9 -10 -10 -11
10 13 16 18 17 15 13 12 11 12 14 14 14 16 17 15 12 10 7 5 3 1 1 0 0 -1 -1 -2 -2 -3 -4 -4 -5 -5 -6 -7 -7 -8 -8 -9 -9 -10 -10 -11
10 13 13 13 12 11 11 12 11 11 14 14 15 15 16 16 14 11 7 4 2 1 1 1 0 -1 -1 -2 -2 -3 -4 -4 -5 -5 -6 -6 -7 -7 -8 -8 -9 -9 -10 -10
10 12 11 12 10 9 10 11 10 10 11 12 12 13 15 13 8 7 6 3 2 2 2 1 0 -0 -1 -2 -2 -3 -4 -4 -5 -5 -6 -6 -7 -7 -8 -8 -9 -9 -10 -10
10 11 13 15 12 11 14 14 10 10 10 11 12 15 14 10 8 8 6 4 4 3 2 2 1 -0 -1 -2 -2 -3 -4 -4 -5 -5 -6 -6 -7 -7 -7 -8 -9 -9 -10 -10
10 11 12 12 14 14 18 12 11 11 11 10 11 13 12 10 8 6 6 6 5 4 3 2 1 -0 -1 -2 -2 -3 -4 -4 -5 -5 -6 -6 -6 -7 -7 -8 -8 -9 -9 -10
8 11 11 11 14 15 16 10 9 10 13 13 11 11 11 6 4 7 8 7 6 5 3 2 1 -0 -1 -2 -2 -3 -3 -4 -5 -5 -5 -6 -6 -6 -7 -7 -8 -8 -9 -9
6 8 10 9 12 14 18 10 8 10 13 14 11 11 9 4 9 11 9 8 6 4 3 1 0 -0 -1 -2 -2 -3 -3 -4 -4 -5 -5 -6 -6 -6 -7 -7 -8 -8 -8 -9
7 8 9 10 11 14 14 7 8 13 18 15 13 12 8 6 9 9 8 7 5 4 2 1 0 -0 -1 -2 -2 -3 -3 -4 -4 -5 -5 -5 -6 -6 -6 -7 -7 -8 -8 -8
10 9 9 10 10 13 10 7 11 16 16 15 14 13 12 11 10 8 7 6 5 4 2 1 0 -1 -1 -2 -2 -3 -3 -4 -4 -4 -5 -5 -5 -6 -6 -6 -7 -7 -8 -8
11 12 12 11 15 15 11 13 16 15 15 15 14 13 12 10 9 8 7 6 5 4 2 1 0 -1 -1 -2 -2 -3 -3 -4 -4 -4 -5 -5 -5 -6 -6 -6 -6 -7 -7 -8
10 8 10 9 11 12 11 13 15 15 15 15 14 12 11 10 10 9 7 6 5 3 2 1 0 -1 -1 -1 -2 -3 -3 -3 -4 -4 -5 -5 -5 -5 -6 -6 -6 -7 -7 -8
13 8 9 10 12 12 14 17 18 18 17 16 15 14 12 11 10 9 8 6 5 4 3 1 0 -0 -1 -1 -2 -2 -3 -3 -4 -4 -4 -5 -5 -5 -5 -6 -6 -6 -7 -8
9 9 11 15 17 15 17 18 17 17 16 16 15 14 13 11 10 9 8 6 5 4 3 2 1 -0 -1 -1 -2 -2 -3 -3 -4 -4 -4 -5 -5 -5 -5 -5 -5 -6 -7 -7
Wind_Speed
4 2 4 3 2 2 2 4 6 2 3 7 13 14 10 15 18 19 18 17 16 15 12 11 8 5 3 1 4 6 8 10 10 9 9 9 10 9 10 12 14 15 17 17
1 3 3 1 1 2 3 6 6 2 2 5 11 15 11 13 20 20 19 18 17 15 13 12 10 6 3 1 4 6 7 9 10 9 9 9 10 9 10 11 13 15 16 17
1 3 1 2 2 2 4 5 5 5 1 4 8 7 5 6 12 15 17 17 17 16 15 13 11 7 3 0 3 5 7 8 9 11 9 10 8 8 8 10 11 15 16 16
4 2 2 2 1 3 4 1 4 4 6 4 3 6 3 4 7 13 17 17 17 15 15 13 11 7 4 1 2 4 6 7 9 10 9 11 10 10 12 10 11 16 16 16
2 1 0 1 1 2 2 2 3 4 4 5 3 5 2 2 5 9 14 16 16 15 14 13 10 7 4 1 1 3 5 7 8 9 10 10 10 10 10 11 13 14 15 15
3 1 1 1 1 0 1 2 2 3 3 4 1 4 4 3 2 1 5 11 13 13 13 12 10 7 4 2 1 3 5 6 7 9 9 10 12 12 13 14 13 12 11 14
2 2 1 0 2 2 2 5 4 3 3 2 2 5 6 0 3 5 4 6 10 12 13 12 11 8 5 3 2 3 5 6 7 9 9 10 11 12 13 13 13 13 12 12
2 2 2 1 2 2 1 4 4 5 6 7 2 6 3 1 2 4 5 5 9 12 12 12 10 7 5 3 2 3 5 6 7 8 9 9 10 9 9 12 12 12 12 13
2 0 2 2 1 2 0 1 2 3 5 6 6 5 5 3 6 7 6 7 11 13 13 12 10 7 5 4 3 3 5 6 7 8 9 9 10 10 11 12 12 11 13 15
1 2 2 1 3 3 3 3 2 3 5 7 9 7 4 4 5 8 10 11 12 13 13 12 9 8 5 4 3 3 4 6 7 8 8 8 10 11 12 12 12 13 15 17
1 3 2 3 5 3 4 3 3 2 3 4 7 8 2 5 3 5 8 11 13 14 14 12 10 8 6 4 3 3 4 6 7 8 8 9 10 11 11 11 12 14 15 16
1 2 3 3 2 2 3 4 5 4 3 4 6 8 2 4 4 6 7 8 11 13 13 12 10 8 6 5 4 4 4 5 6 7 8 9 10 10 11 11 12 14 15 16
4 3 3 3 3 3 5 5 5 3 3 5 5 9 3 3 6 7 8 8 11 13 13 12 10 9 7 6 5 4 5 5 6 7 9 9 10 10 11 12 12 14 14 15
3 4 6 5 3 3 5 7 8 8 6 7 11 18 15 11 10 9 9 9 11 13 14 13 11 9 8 6 5 5 5 5 6 7 9 9 10 11 11 12 12 13 14 14
3 5 6 9 7 6 9 12 13 15 12 11 12 14 21 18 14 10 7 10 12 14 14 14 12 10 9 7 6 5 5 5 6 7 9 9 10 10 11 11 12 12 13 13
4 4 3 5 3 5 8 14 15 17 13 16 20 21 19 11 5 6 8 12 15 16 16 14 13 11 10 8 6 5 5 5 6 7 9 9 10 10 11 11 12 12 13 13
5 4 3 4 2 6 9 10 13 9 12 12 12 11 5 6 8 8 10 14 16 16 16 15 14 12 10 8 7 6 5 5 6 8 8 9 9 10 11 11 12 12 13 13
6 4 2 4 5 7 2 3 8 9 11 15 15 17 13 11 8 8 10 13 15 15 15 15 13 11 10 8 6 5 5 6 7 8 8 8 9 10 11 11 12 12 12 12
2 4 3 2 4 9 5 5 7 7 10 13 18 19 12 2 5 8 12 14 14 15 14 13 12 11 9 8 7 5 6 6 7 8 8 8 9 10 11 11 12 12 12 12
2 2 4 4 4 7 3 5 5 3 7 8 13 13 7 4 5 4 7 12 12 12 12 12 12 11 10 8 7 6 6 7 7 7 8 9 9 10 11 11 12 11 11 11
5 5 6 7 7 10 2 8 8 4 5 5 10 10 10 10 8 1 7 11 12 13 13 13 12 11 10 9 8 7 7 7 7 7 8 9 9 9 10 11 10 11 11 11
10 9 9 7 7 9 8 11 11 9 1 5 7 9 12 13 6 6 9 11 14 14 14 14 12 11 9 9 8 8 8 6 6 7 8 9 9 8 8 10 10 10 10 11
10 10 7 12 11 2 13 13 9 3 6 7 7 9 11 11 10 10 10 13 14 15 14 14 12 11 9 10 9 9 7 5 5 7 8 8 9 8 8 9 10 9 9 8
8 5 6 8 14 12 14 18 17 15 15 13 10 9 11 12 12 13 12 13 15 15 15 14 13 12 11 10 10 9 6 5 6 7 7 7 8 8 8 7 7 7 7 8
8 10 7 11 12 11 13 17 21 18 17 16 14 13 14 14 14 15 14 15 15 15 14 14 13 13 12 11 10 9 7 6 6 7 6 7 6 7 7 7 7 8 7 8
9 12 11 15 11 10 13 7 7 12 15 16 14 14 14 15 15 15 15 15 15 15 15 14 14 13 12 11 10 9 8 7 6 6 6 5 5 6 6 7 8 7 8 12
Wind_Direction
19 80 79 70 25 358 284 270 278 270 165 229 250 260 238 197 205 214 213 211 212 213 198 184 181 177 165 44 6 358 352 350 347 345 342 338 338 336 337 337 336 335 335 333
156 87 79 72 173 209 244 271 281 237 178 252 285 277 259 210 211 216 218 218 218 212 196 190 188 188 185 16 1 353 350 346 347 344 335 331 327 326 327 330 331 334 333 331
37 87 116 169 162 237 254 276 302 305 280 231 295 277 190 206 222 226 230 230 226 216 205 194 191 191 188 344 0 347 342 339 343 341 334 331 329 327 335 336 332 332 330 328
91 90 167 192 204 306 299 310 294 287 291 297 324 306 161 191 222 226 227 227 226 216 207 196 190 188 185 147 355 335 335 336 341 340 339 339 336 334 334 331 325 327 327 327
109 77 163 234 5 298 329 3 273 263 266 279 239 275 267 172 246 233 226 224 221 212 202 192 186 177 168 160 321 324 328 333 340 341 340 336 333 330 327 327 326 328 327 326
94 82 14 23 68 348 198 217 179 197 235 262 190 272 286 187 218 235 225 219 213 202 192 184 173 165 167 177 274 312 324 333 339 339 338 336 332 330 328 330 329 329 326 325
156 151 95 258 228 162 258 301 299 288 270 308 134 260 265 153 237 256 266 228 203 191 184 178 174 175 182 205 263 304 322 332 338 337 336 333 330 328 327 328 327 327 325 325
255 180 109 31 348 344 10 327 345 318 310 313 239 257 280 153 237 259 261 233 194 189 185 182 179 180 188 210 255 301 323 330 334 333 332 328 328 326 322 324 323 322 322 322
290 205 111 61 35 310 194 107 3 281 284 284 275 273 268 187 241 236 229 208 197 191 187 184 180 182 191 211 247 297 317 324 327 327 326 325 328 325 322 322 321 320 321 322
286 272 167 141 155 64 4 145 189 267 306 301 295 284 278 227 234 222 224 217 204 192 189 186 184 185 192 209 238 280 306 315 319 321 324 320 321 322 321 319 321 322 322 323
241 256 185 188 213 209 165 174 199 214 264 284 302 300 213 250 252 248 238 219 203 194 190 187 186 186 192 207 233 271 295 307 314 319 319 318 319 320 320 320 322 323 322 324
190 247 254 210 106 349 245 225 206 251 246 236 272 278 152 227 241 252 257 222 203 194 189 186 185 187 197 213 233 263 286 299 310 313 313 314 317 319 320 322 323 323 323 324
178 223 271 197 186 192 218 211 207 220 251 231 243 272 133 203 243 247 249 223 197 190 186 185 188 196 204 215 232 256 277 294 304 308 309 312 316 319 321 322 323 323 323 323
190 231 246 276 307 196 216 202 195 200 228 240 237 269 286 284 275 265 242 217 197 190 188 190 195 201 206 215 230 251 271 288 298 303 306 310 315 318 318 318 320 321 322 323
208 243 247 264 271 253 252 237 210 215 232 247 260 270 282 298 301 286 241 203 194 193 194 196 199 201 205 213 225 242 264 280 292 298 302 307 311 313 314 316 318 320 321 322
205 237 263 269 230 229 258 245 228 230 238 248 264 276 277 289 279 246 218 200 200 200 199 198 200 201 205 211 220 234 257 276 288 291 295 302 307 311 313 315 317 318 320 321
189 211 252 268 238 284 267 229 197 204 214 216 238 258 269 260 253 250 226 207 207 203 198 197 198 200 202 206 212 229 253 273 280 284 290 297 302 307 311 313 314 317 320 320
183 197 241 289 312 256 258 124 186 215 235 222 242 261 265 268 281 262 232 214 208 201 196 195 194 193 194 195 202 220 246 264 273 280 287 294 302 305 310 312 314 316 317 317
227 203 212 238 277 278 265 189 186 211 268 228 232 253 263 270 288 258 220 210 206 196 191 188 186 183 182 187 194 211 242 257 269 278 290 299 303 305 309 312 314 316 315 313
118 204 217 197 232 254 243 148 157 171 273 223 212 236 217 183 265 287 174 190 192 183 177 173 171 174 181 186 190 213 241 256 268 282 293 299 300 302 306 309 312 313 312 309
173 188 206 212 236 264 218 139 150 204 276 181 201 214 188 204 229 148 159 176 178 173 170 168 170 179 185 180 189 217 240 253 270 284 291 295 298 302 304 306 309 311 311 310
184 179 196 185 210 255 163 152 193 230 222 190 206 208 207 218 208 178 177 175 172 171 172 172 176 183 180 180 194 220 239 253 269 280 287 294 300 303 300 307 310 313 314 314
209 203 196 199 220 280 174 205 226 253 237 227 216 216 212 215 211 197 189 184 181 178 176 179 182 182 183 190 201 221 236 246 264 278 288 297 302 302 304 309 313 317 318 317
218 202 214 244 260 256 231 241 251 245 247 250 233 218 203 211 208 197 190 186 184 183 182 181 184 188 194 197 206 220 228 236 257 275 289 298 303 307 311 312 312 315 316 317
203 175 211 246 265 283 261 238 244 250 248 249 241 227 216 212 208 198 192 190 187 185 183 184 189 196 198 195 203 211 216 225 248 269 283 293 299 305 312 314 313 311 308 311
192 189 203 249 242 236 269 248 227 233 239 236 230 227 218 211 209 198 195 190 186 185 183 187 194 199 198 195 200 203 205 214 235 258 277 288 297 304 310 315 316 309 307 316
Height
1580 1579 1582 1586 1587 1587 1586 1585 1584 1586 1594 1596 1590 1588 1590 1597 1599 1601 1602 1604 1605 1607 1608 1607 1607 1607 1606 1604 1602 1599 1595 1591 1587 1583 1579 1574 1569 1564 1558 1553 1547 1541 1535 1529
1579 1583 1589 1590 1591 1589 1587 1585 1582 1588 1596 1594 1586 1583 1584 1589 1592 1594 1597 1599 1601 1603 1604 1603 1604 1604 1603 1602 1599 1596 1593 1589 1585 1580 1576 1571 1565 1560 1555 1550 1544 1539 1533 1527
1580 1588 1591 1590 1589 1587 1586 1584 1583 1586 1592 1595 1591 1572 1581 1587 1590 1592 1593 1594 1596 1598 1600 1600 1600 1601 1600 1599 1597 1593 1590 1586 1582 1578 1573 1568 1563 1558 1553 1547 1541 1535 1530 1524
1585 1590 1590 1589 1589 1588 1584 1588 1590 1590 1588 1578 1588 1570 1568 1580 1585 1587 1587 1589 1590 1593 1595 1596 1597 1597 1597 1596 1593 1590 1587 1583 1579 1575 1570 1565 1560 1555 1550 1544 1538 1532 1527 1521
1587 1590 1589 1588 1590 1591 1588 1591 1590 1590 1587 1582 1584 1577 1560 1579 1576 1577 1580 1582 1585 1588 1591 1592 1593 1594 1593 1592 1590 1587 1584 1581 1577 1572 1568 1562 1557 1552 1547 1541 1535 1530 1524 1518
1590 1592 1591 1591 1592 1592 1592 1591 1590 1589 1585 1577 1577 1576 1560 1566 1568 1571 1576 1578 1581 1584 1586 1588 1589 1590 1590 1589 1587 1584 1581 1578 1574 1570 1565 1560 1555 1549 1544 1538 1532 1527 1521 1516
1588 1590 1592 1593 1590 1590 1589 1583 1575 1572 1570 1567 1583 1579 1563 1566 1570 1573 1575 1576 1578 1580 1582 1583 1585 1586 1586 1585 1583 1581 1578 1575 1571 1567 1562 1557 1552 1547 1541 1536 1530 1524 1518 1513
1583 1585 1590 1592 1590 1589 1589 1586 1584 1584 1575 1568 1578 1573 1557 1568 1571 1572 1573 1574 1575 1576 1578 1580 1581 1582 1582 1581 1580 1578 1575 1572 1568 1564 1559 1554 1549 1544 1538 1533 1527 1522 1516 1510
1583 1585 1592 1593 1593 1591 1588 1587 1591 1586 1585 1584 1565 1562 1557 1569 1569 1570 1570 1571 1571 1573 1574 1576 1578 1579 1579 1578 1577 1575 1572 1569 1565 1561 1556 1552 1547 1541 1536 1531 1525 1520 1514 1508
1589 1587 1589 1593 1594 1595 1592 1590 1590 1587 1584 1578 1563 1559 1555 1554 1558 1563 1566 1567 1568 1569 1571 1573 1574 1575 1575 1574 1573 1571 1569 1566 1562 1558 1554 1549 1544 1539 1533 1528 1523 1517 1511 1505
1591 1587 1587 1590 1589 1585 1592 1592 1590 1588 1587 1582 1573 1556 1551 1551 1555 1558 1560 1561 1563 1564 1566 1568 1570 1571 1571 1571 1569 1568 1565 1562 1559 1555 1551 1546 1541 1536 1530 1525 1520 1514 1509 1503
1592 1588 1581 1583 1590 1591 1588 1586 1586 1584 1582 1585 1580 1560 1551 1553 1555 1556 1557 1557 1558 1560 1562 1565 1566 1567 1567 1567 1566 1564 1562 1559 1556 1552 1548 1543 1538 1533 1528 1523 1517 1512 1506 1500
1592 1588 1579 1577 1587 1591 1589 1588 1588 1587 1585 1582 1580 1555 1551 1553 1554 1554 1553 1553 1554 1556 1558 1560 1562 1563 1563 1563 1562 1561 1559 1556 1553 1549 1545 1540 1536 1531 1526 1520 1515 1509 1503 1497
1592 1587 1580 1575 1573 1576 1581 1586 1588 1586 1580 1573 1569 1549 1541 1544 1547 1548 1549 1549 1550 1551 1553 1555 1557 1559 1559 1559 1558 1557 1555 1552 1549 1546 1542 1537 1533 1528 1523 1517 1512 1506 1501 1495
1591 1584 1581 1578 1580 1583 1580 1579 1582 1580 1571 1567 1552 1548 1539 1539 1541 1543 1543 1544 1545 1546 1548 1550 1553 1554 1555 1555 1554 1553 1552 1549 1546 1542 1539 1535 1530 1525 1520 1515 1509 1504 1498 1493
1589 1584 1584 1578 1580 1582 1578 1572 1574 1574 1571 1565 1557 1549 1536 1537 1538 1538 1539 1539 1539 1541 1543 1546 1548 1550 1550 1551 1550 1549 1548 1545 1543 1539 1535 1531 1527 1522 1517 1512 1507 1501 1496 1491
1585 1583 1578 1569 1574 1576 1561 1551 1562 1562 1558 1555 1549 1537 1533 1535 1534 1534 1533 1533 1533 1535 1538 1540 1543 1545 1546 1546 1546 1545 1544 1542 1539 1536 1532 1528 1524 1519 1514 1509 1504 1499 1493 1488
1582 1581 1578 1574 1569 1569 1540 1548 1549 1550 1546 1545 1539 1532 1531 1531 1530 1528 1527 1527 1528 1530 1533 1535 1538 1540 1541 1542 1542 1541 1540 1538 1536 1532 1529 1525 1521 1516 1511 1506 1501 1496 1491 1486
1583 1580 1579 1578 1566 1553 1541 1546 1548 1547 1537 1530 1532 1527 1526 1526 1526 1521 1520 1521 1523 1526 1529 1531 1534 1536 1537 1537 1538 1537 1536 1534 1532 1529 1526 1522 1518 1513 1508 1503 1498 1493 1488 1483
1584 1582 1579 1580 1571 1558 1532 1541 1543 1546 1535 1522 1523 1522 1523 1525 1523 1516 1516 1516 1519 1521 1524 1526 1529 1531 1532 1533 1533 1533 1532 1531 1528 1526 1523 1519 1515 1510 1506 1501 1496 1491 1486 1481
1580 1579 1578 1573 1568 1544 1532 1538 1543 1540 1521 1516 1515 1516 1517 1517 1516 1513 1512 1513 1515 1517 1519 1522 1524 1526 1528 1528 1529 1529 1528 1527 1525 1522 1519 1516 1512 1507 1503 1498 1493 1488 1483 1479
1559 1564 1566 1565 1565 1544 1531 1535 1532 1518 1511 1511 1511 1510 1510 1509 1508 1508 1508 1509 1510 1512 1514 1517 1519 1521 1523 1524 1525 1524 1524 1523 1521 1519 1516 1513 1509 1505 1500 1496 1491 1486 1481 1476
1548 1543 1542 1542 1530 1519 1519 1515 1512 1510 1508 1506 1505 1505 1505 1503 1502 1503 1503 1504 1506 1508 1510 1512 1514 1516 1518 1519 1520 1520 1520 1519 1517 1515 1513 1510 1507 1503 1498 1494 1489 1484 1479 1474
1537 1538 1538 1535 1519 1513 1512 1509 1507 1505 1502 1500 1499 1499 1498 1496 1496 1497 1497 1499 1500 1502 1504 1507 1509 1511 1513 1514 1515 1516 1515 1515 1514 1512 1510 1507 1504 1500 1496 1492 1487 1482 1476 1471
1523 1531 1530 1524 1512 1508 1502 1500 1499 1498 1496 1494 1492 1491 1490 1490 1489 1490 1491 1492 1494 1496 1499 1501 1503 1505 1507 1509 1510 1511 1511 1511 1510 1508 1506 1504 1501 1498 1494 1490 1485 1480 1475 1470
1516 1517 1517 1505 1500 1501 1496 1494 1493 1491 1488 1487 1485 1483 1482 1482 1482 1483 1484 1486 1488 1490 1492 1495 1497 1500 1502 1503 1505 1506 1506 1506 1506 1505 1503 1501 1498 1495 1492 1488 1484 1479 1475 1469